Preview of NWS' New Version of Forecast
This preview is not operational and should not be used for support decisions.

Regional Weather Roundup (RWR)

Issued by National Weather Service (NWS)

                            
000
ASUS43 KLSX 182157
RWRMO 

WEATHER SUMMARY FOR MISSOURI
NATIONAL WEATHER SERVICE SPRINGFIELD MO
500 PM CDT THU APR 18 2019

NOTE: "FAIR" INDICATES FEW OR NO CLOUDS BELOW 12,000 FEET WITH NO
       SIGNIFICANT WEATHER AND/OR OBSTRUCTIONS TO VISIBILITY.
       CURRENT SKY AND/OR WEATHER CONDITIONS ARE NOT AVAILABLE FOR
       CHILLICOTHE AND FARMINGTON.

MOZ001>031-035>038-043-044-053-054-182300-
...NORTHERN AND WESTERN MISSOURI...
  
CITY           SKY/WX    TMP DP  RH WIND       PRES   REMARKS
KANSAS CTY INT PTSUNNY   60  39  45 N16G36    29.82S                  
LEE'S SUMMIT   CLOUDY    57  40  52 N15G24    29.84R                  
ST JOSEPH      PTSUNNY   60  38  43 N20G30    29.83S                  
CHILLICOTHE      N/A     58  38  47 N8G21     29.83R                  
     
$$
MOZ066>068-077>081-088>096-101>105-182300-
...SOUTHWEST MISSOURI...
  
CITY           SKY/WX    TMP DP  RH WIND       PRES   REMARKS
SPRINGFIELD    CLOUDY    54  42  64 N15       29.77S                  
JOPLIN         MOSUNNY   59  41  51 N20G29    29.80F                  
BRANSON        CLOUDY    50  46  87 N13       29.78S                  
               
$$
MOZ032>034-039>042-045>050-055>058-069>072-182300-
...CENTRAL MISSOURI...  
  
CITY           SKY/WX    TMP DP  RH WIND       PRES   REMARKS
COLUMBIA       NOT AVBL                                               
JEFFERSON CITY CLOUDY    55  41  59 N6        29.77F                  
ROLLA          CLOUDY    49  41  74 N14       29.77F                  
SEDALIA        CLOUDY    55  44  66 NW16      29.80F                  
WARRENSBURG    CLOUDY    55  41  58 N9        29.83S                  
               
$$
MOZ051-052-059>065-182300-
...EAST CENTRAL MISSOURI...
  
CITY           SKY/WX    TMP DP  RH WIND       PRES   REMARKS
ST LOUIS INTL  CLOUDY    50  43  77 NW14G20   29.76F                  
ST CHARLES     CLOUDY    51  44  77 N10       29.76F                  
                   
$$
MOZ072>076-082>087-097>100-106>115-182300-
...SOUTH CENTRAL AND SOUTHEAST MISSOURI...
  
CITY           SKY/WX    TMP DP  RH WIND       PRES   REMARKS
CAPE GIRARDEAU LGT RAIN  53  49  86 N13       29.71R                  
FARMINGTON     LGT RAIN  48  46  93 N13       29.75R                  
POPLAR BLUFF   RAIN      55  53  93 N17       29.68S FOG              
WEST PLAINS    LGT RAIN  48  45  89 N12G23    29.74R                  
                                       
$$